Wind_Speed
52 53 54 55 55 56 57 58 59 60 61 62 62 63 63 63 63 63 63 63 63 63 62 61 60 58 56 54 51 48 46 43 41 39 38 38 37 36 35 33 33 32 32 32 32 31 30 29 28 26 24 23 22 21 22 21 21 20 20 19 18 18 17 17 17 18 18 19 20 21 22 23 25 26 28 29 31 33 34 35 36 37 38 39 40 41 41 42
53 54 55 56 57 57 58 59 60 61 62 63 63 63 63 63 63 63 62 61 60 59 58 56 54 51 49 46 44 41 39 36 34 32 31 30 30 29 28 27 27 27 27 26 26 25 24 23 22 21 20 20 20 20 20 20 20 19 18 18 17 16 16 16 17 17 18 19 20 22 23 25 26 28 29 30 32 34 35 36 37 38 39 40 41 42 43 44
53 54 55 56 57 58 59 60 61 62 62 62 62 61 60 59 59 57 56 55 53 52 50 48 45 43 40 38 35 33 31 29 27 26 25 24 23 23 23 22 22 22 21 21 21 20 20 20 19 19 19 19 19 19 19 19 19 18 17 16 15 15 15 16 17 18 19 20 21 23 25 26 28 29 30 31 33 35 37 38 38 39 40 41 42 43 45 46
54 55 56 56 57 58 58 58 58 58 57 55 54 52 51 50 48 47 46 45 44 42 41 38 36 34 32 30 28 26 24 22 22 21 20 20 20 20 19 19 18 18 19 19 19 19 19 19 19 19 19 20 20 20 20 19 18 16 16 15 15 15 16 17 18 19 20 21 23 24 26 28 29 29 31 33 34 36 38 38 39 41 42 43 44 45 47 48
53 53 53 53 52 52 52 51 50 48 46 44 42 41 40 39 38 37 37 36 35 33 32 30 28 26 25 23 21 20 19 19 18 18 18 18 17 17 17 18 18 19 19 20 20 20 20 20 20 21 21 22 21 20 19 18 16 15 14 14 15 16 17 18 19 20 21 23 24 26 27 28 29 30 32 33 35 37 38 39 40 42 44 45 46 48 49 50
48 47 46 45 44 43 42 40 39 37 36 34 33 31 30 30 30 29 28 27 26 25 23 22 21 19 19 18 18 17 17 17 16 17 17 17 18 18 20 21 21 22 22 22 22 22 22 23 23 24 23 22 20 19 17 16 15 14 14 15 16 17 19 19 20 21 23 24 25 26 28 29 30 31 32 34 36 37 38 40 42 43 45 47 49 50 51 52
40 38 37 35 34 33 32 31 30 29 27 26 25 24 23 23 23 22 20 19 19 18 17 17 16 16 16 16 16 16 16 17 18 19 20 21 22 24 24 25 25 25 25 25 25 25 26 26 25 24 22 20 18 16 15 14 14 15 15 17 18 19 20 20 22 23 23 25 26 27 28 29 30 31 33 34 36 38 39 41 43 45 47 49 51 53 54 55
31 29 28 26 25 25 24 23 22 21 19 18 18 18 18 18 17 17 16 16 16 15 15 15 16 16 17 18 18 19 20 22 24 25 26 27 28 28 28 28 28 28 28 28 28 28 27 25 23 21 19 18 16 15 15 15 16 17 17 18 19 19 20 21 22 24 24 25 27 28 29 30 31 33 34 36 37 39 41 43 45 47 49 51 53 55 56 57
21 19 18 17 17 16 15 14 13 12 12 11 12 13 14 14 15 15 15 16 16 17 18 19 20 21 23 24 25 27 28 29 30 31 31 31 31 31 31 31 31 31 30 30 28 27 24 22 20 18 17 16 15 15 16 17 18 18 19 19 19 19 20 22 23 24 25 27 28 29 31 32 33 34 36 37 39 41 43 45 47 49 51 53 54 56 58 59
11 10 10 10 10 10 10 9 9 9 10 11 12 13 14 15 17 18 19 21 22 24 26 27 29 30 31 32 33 33 34 35 35 35 35 35 35 34 34 33 32 31 29 28 26 23 21 19 18 17 16 16 16 17 17 18 18 19 19 19 19 20 21 22 24 25 27 28 29 31 32 33 35 36 38 39 41 43 44 46 48 50 52 54 56 58 60 61
8 8 9 10 10 11 12 12 13 14 15 16 18 19 21 22 24 26 27 29 31 33 34 35 36 37 37 38 38 39 39 40 40 39 38 38 37 35 34 32 30 28 26 24 22 20 19 18 17 17 17 17 17 17 17 17 17 17 18 18 19 21 22 24 25 27 28 29 31 32 33 35 36 38 40 41 43 44 46 48 50 52 54 56 58 60 62 63
12 13 14 14 15 16 17 18 19 21 22 24 26 27 29 30 32 34 35 37 38 39 40 41 41 42 43 43 43 43 43 43 42 40 39 37 35 33 31 29 27 25 23 21 20 19 18 17 16 16 16 16 16 16 15 16 16 17 18 19 21 22 23 25 27 28 30 31 33 34 35 37 39 40 42 43 45 46 48 50 53 55 57 59 61 62 64 65
18 18 19 20 21 22 23 25 26 28 30 31 33 34 36 36 37 39 41 42 43 45 46 46 47 47 47 47 45 45 44 43 40 38 36 33 31 29 27 26 24 23 21 20 19 18 17 16 15 15 14 14 14 14 15 16 17 18 20 22 23 24 25 27 29 30 31 33 35 36 38 39 41 43 44 46 47 49 51 53 55 57 59 61 62 64 66 67
24 25 25 26 27 29 30 31 33 35 36 38 39 41 42 42 43 45 47 48 49 50 50 51 50 49 48 46 44 42 41 39 37 34 32 30 28 26 25 23 22 21 20 18 17 16 15 14 13 13 13 13 13 14 15 17 18 21 22 24 25 26 27 29 30 32 33 34 36 38 40 41 43 45 47 48 50 51 53 55 57 59 61 63 64 66 68 70
31 32 32 33 34 35 37 38 40 41 43 44 46 47 48 48 50 51 53 53 53 53 52 51 49 47 45 43 41 39 37 35 33 31 29 27 26 24 23 21 20 19 18 16 15 14 13 12 12 12 13 13 14 15 17 18 20 22 24 26 27 28 29 30 32 33 35 36 38 40 42 44 45 47 49 51 52 54 56 57 59 61 63 65 66 68 70 72
38 39 40 41 41 42 43 44 46 47 48 49 51 52 53 54 55 55 55 54 53 52 50 48 46 44 41 39 37 35 34 32 30 28 27 25 23 22 20 19 17 16 15 14 13 12 12 11 12 13 13 14 16 17 19 20 21 23 25 28 29 30 31 32 33 35 36 38 40 42 44 46 48 50 51 53 55 57 58 60 61 63 65 67 69 70 72 73
44 45 47 47 48 49 49 50 50 51 52 52 53 55 56 57 56 55 54 52 50 48 46 43 42 40 37 35 33 32 31 29 28 26 24 22 21 19 18 16 15 14 12 11 11 10 11 11 12 13 14 16 18 19 20 21 23 25 27 30 31 32 33 35 36 37 39 41 42 44 46 49 51 53 54 56 58 60 61 63 65 66 67 69 71 73 74 75
49 50 51 51 52 52 52 52 52 52 52 52 53 54 55 55 54 53 50 48 46 44 41 38 37 36 33 32 31 29 28 27 25 23 22 20 18 16 15 13 12 11 10 10 10 10 11 11 13 14 15 17 19 21 22 23 25 28 30 32 33 35 36 37 39 40 42 44 45 46 49 51 53 55 57 58 60 63 64 66 67 69 70 72 73 75 77 78
52 53 53 53 53 52 52 52 51 51 51 50 50 50 51 52 51 49 46 44 42 40 37 35 34 32 30 30 28 26 25 24 22 20 19 17 15 13 12 10 9 8 8 8 9 10 11 12 14 16 17 19 21 23 25 27 29 30 32 34 35 37 38 40 41 43 44 47 49 49 52 55 55 57 60 61 63 64 66 69 70 71 73 74 76 77 79 80
53 53 53 53 52 51 50 49 49 49 48 48 47 46 45 46 46 44 43 40 38 36 34 31 30 28 27 25 24 23 22 20 19 17 15 13 11 10 8 7 7 7 7 8 10 11 13 15 17 19 21 22 24 26 28 30 32 34 35 37 38 40 42 43 44 46 47 49 52 52 54 59 59 59 62 63 65 67 68 71 73 74 75 76 77 78 80 81
51 51 51 51 50 49 48 47 46 45 44 44 43 41 40 40 40 39 39 37 34 33 30 28 27 24 22 20 19 17 16 15 14 12 10 8 6 5 4 5 6 7 8 10 12 14 16 18 20 22 24 26 28 30 32 34 36 37 39 40 41 43 45 46 48 49 50 51 54 55 55 62 64 63 63 64 67 70 71 72 75 76 77 77 78 79 81 82
49 49 48 48 47 47 46 45 43 41 40 39 38 37 34 35 34 32 33 34 31 29 27 24 22 20 17 15 14 12 10 9 8 6 4 3 3 4 5 6 8 10 12 14 16 18 20 22 24 27 29 31 32 34 36 37 39 40 42 44 45 46 47 50 51 52 54 54 56 57 56 63 69 69 67 66 68 73 74 75 77 79 79 79 80 81 82 84
46 46 45 44 44 43 43 42 40 38 36 35 34 33 31 31 30 26 26 28 27 25 23 21 18 15 13 10 9 7 6 4 3 2 2 3 5 7 8 10 12 14 16 18 20 22 25 27 29 31 32 34 36 37 39 40 42 44 46 47 48 50 50 52 54 55 57 57 59 59 56 60 70 75 74 70 70 74 77 78 80 82 82 81 81 82 83 85
42 42 41 41 40 39 39 39 38 35 34 33 31 29 28 28 27 23 20 21 21 19 17 15 13 10 8 6 5 3 1 0 2 3 5 7 8 10 12 14 15 18 20 22 24 26 28 30 32 34 36 37 39 40 42 43 45 47 49 50 51 54 55 55 56 57 59 61 63 65 60 57 66 76 78 75 73 75 78 80 82 84 84 84 83 84 86 87
39 38 37 37 36 35 34 35 34 33 31 30 27 26 25 25 24 21 17 15 15 14 12 10 8 6 4 3 1 1 2 4 6 7 9 10 12 14 16 18 20 22 24 26 28 29 31 33 34 37 39 41 42 44 46 47 49 50 52 54 55 57 58 59 60 60 61 62 64 69 67 59 62 73 80 79 77 77 79 80 82 85 86 86 86 86 87 89
35 34 33 33 32 31 30 30 30 29 27 25 23 22 22 21 20 18 15 12 11 9 7 6 4 2 1 1 2 4 5 7 9 11 12 14 16 18 19 21 23 25 27 29 30 32 34 36 38 40 42 44 46 47 49 50 52 54 55 57 58 60 61 62 64 64 64 64 65 71 73 65 63 72 80 81 81 81 82 82 83 86 87 87 87 88 88 90
32 30 30 29 28 27 26 25 25 24 22 20 19 18 17 17 16 14 11 8 7 5 3 2 1 1 2 3 5 7 8 10 12 14 16 18 20 21 23 25 27 29 30 32 34 36 37 39 41 43 45 47 49 50 52 53 55 57 58 60 61 62 64 65 66 67 68 67 68 72 76 73 68 73 81 82 83 85 85 86 86 87 88 88 88 88 89 90
29 27 27 26 24 23 22 21 20 19 17 16 15 14 13 13 12 10 7 5 3 1 1 1 3 4 5 7 9 10 12 14 16 18 20 22 24 25 27 28 30 33 34 36 38 40 42 44 45 47 49 50 52 54 55 56 58 59 61 62 64 65 67 68 69 70 71 70 71 74 77 77 73 77 84 85 85 88 88 89 89 90 90 90 90 90 90 90
25 24 23 22 21 20 19 17 16 15 13 12 11 11 10 9 7 6 4 3 2 3 4 5 6 7 9 11 13 14 17 18 21 23 24 26 28 30 31 33 34 37 38 40 42 44 46 47 49 51 52 54 55 57 58 60 61 63 65 66 67 69 70 71 72 73 74 73 74 76 79 80 76 79 88 90 89 91 91 92 93 92 92 92 93 93 92 92
23 21 20 20 19 17 16 15 13 11 10 9 8 7 7 6 5 5 5 4 5 6 8 9 10 12 14 16 17 19 21 23 25 26 28 30 32 33 35 37 38 40 42 44 46 48 50 51 53 54 56 57 59 61 62 64 65 67 68 69 70 72 73 74 75 77 78 77 77 78 81 83 80 81 89 93 94 95 95 96 96 96 95 96 96 95 94 93
20 19 18 17 16 15 13 12 10 9 8 7 6 6 6 6 6 7 8 8 9 10 12 13 15 16 18 20 22 24 25 27 28 30 32 33 35 37 39 41 42 44 46 48 50 52 54 55 56 58 59 61 62 64 66 67 69 71 72 73 74 75 76 76 77 79 80 80 81 81 83 85 84 85 89 94 97 98 98 99 99 98 99 99 98 97 96 95
17 16 15 14 14 13 11 10 9 8 7 7 7 7 8 9 9 10 11 12 13 14 16 18 19 21 22 24 25 27 29 31 32 34 36 37 39 41 43 45 46 48 50 51 54 56 58 59 60 62 63 64 66 67 69 71 73 75 76 78 79 80 80 79 80 82 82 82 83 83 84 86 86 88 91 94 98 99 101 102 100 100 101 101 99 98 98 99
15 14 13 12 11 10 9 9 8 8 8 8 9 10 11 12 12 13 15 16 17 19 20 22 23 25 27 28 29 31 33 35 36 38 40 42 44 45 47 49 50 52 53 54 56 58 61 63 64 65 66 68 70 71 73 74 75 78 80 82 83 85 85 83 83 84 85 85 85 84 86 86 87 90 93 96 98 100 102 102 100 101 102 102 100 100 100 101
13 12 11 10 9 9 9 9 9 9 9 10 11 12 14 15 16 17 19 21 22 24 25 27 28 30 31 33 34 36 37 39 41 43 44 46 48 49 51 52 54 55 56 58 59 60 63 66 67 68 69 71 73 75 77 78 79 81 84 86 87 89 90 89 88 88 88 88 87 86 87 87 88 91 94 97 98 100 101 101 101 103 103 102 101 101 102 103
13 12 11 10 10 9 10 10 10 11 12 13 14 16 18 19 21 22 24 25 26 28 29 31 33 34 36 37 39 40 42 43 45 47 48 50 51 53 55 56 57 59 60 61 62 63 64 68 71 72 73 74 76 78 80 82 83 84 86 88 89 91 93 93 92 92 93 93 91 89 88 88 89 91 95 98 99 101 101 101 102 104 103 102 102 102 102 104
13 12 11 11 11 11 11 12 13 13 15 16 18 20 21 23 24 26 27 29 30 31 33 35 36 38 39 41 42 44 45 47 48 50 52 53 55 56 58 59 60 62 63 64 65 66 66 69 73 75 76 78 79 81 84 85 87 87 89 91 92 93 94 95 94 94 95 96 94 93 91 89 89 91 94 98 100 101 102 102 103 103 103 104 104 103 104 105
14 13 13 12 12 13 13 14 15 17 18 19 21 22 24 25 27 29 30 32 33 34 36 38 39 41 42 44 45 47 49 50 52 53 55 56 58 59 61 62 64 65 66 67 69 70 70 71 75 78 79 81 83 84 86 88 90 91 92 94 94 94 95 96 96 95 97 98 96 96 95 91 92 93 93 96 99 101 103 105 104 104 105 107 107 107 107 108
15 14 14 14 15 15 16 17 18 19 21 22 23 25 26 28 29 31 33 34 36 37 39 40 42 44 45 47 48 49 51 53 55 56 58 59 61 62 64 65 67 68 70 71 72 74 75 75 77 80 82 83 85 87 88 90 91 93 94 96 96 96 96 97 98 98 99 99 97 97 96 94 96 98 97 98 102 104 106 108 107 107 108 109 109 109 109 108
16 16 16 16 17 18 19 20 20 22 23 24 26 27 28 30 31 33 35 36 38 40 41 43 44 46 47 49 50 52 53 55 57 59 61 63 64 66 67 69 70 72 73 75 76 77 79 79 80 82 84 85 86 88 89 90 92 93 95 97 97 98 98 99 100 101 102 102 101 101 100 99 102 104 103 104 106 107 108 109 108 107 107 107 107 107 106 106
17 18 18 19 19 20 21 22 23 24 26 27 28 30 31 32 34 35 37 38 40 41 43 45 46 48 50 51 53 55 56 58 60 62 64 66 67 69 71 72 74 76 77 79 80 81 82 83 84 85 86 87 88 89 91 92 94 95 96 98 98 98 99 99 100 101 103 104 105 106 105 104 105 106 105 106 107 107 107 107 106 105 103 103 103 103 103 103
19 20 21 21 22 23 24 25 26 27 28 29 31 32 33 35 36 38 39 41 42 44 45 47 49 51 53 55 56 58 60 62 63 65 67 69 71 72 74 76 77 78 80 81 83 84 84 85 86 87 88 90 91 92 93 95 96 98 99 100 101 102 103 104 104 103 103 104 105 106 105 103 103 103 101 102 102 102 103 103 102 100 98 99 99 100 100 100
21 22 23 23 24 25 26 27 29 30 31 32 33 35 36 37 39 40 42 43 45 47 48 50 52 54 56 58 60 61 63 65 67 69 70 72 74 75 77 78 79 81 82 83 85 86 86 87 88 89 90 92 93 93 95 96 98 101 103 104 104 105 107 107 107 105 103 101 100 100 98 95 94 95 95 96 97 98 99 100 98 96 96 96 97 97 97 98
23 24 25 26 27 27 28 30 31 32 33 34 36 37 39 40 41 43 45 46 48 50 52 53 55 57 59 61 63 65 66 68 70 71 73 75 76 78 79 80 82 83 84 85 86 88 89 89 89 90 91 93 94 95 96 98 100 102 104 104 104 104 105 105 104 102 100 98 96 94 92 88 87 88 88 88 90 92 95 96 95 93 93 94 94 94 94 95
25 26 27 28 29 29 31 32 33 34 36 37 39 40 41 43 44 46 48 49 51 53 54 56 58 60 62 64 65 67 68 70 72 73 75 76 78 80 81 82 83 85 86 86 88 89 90 91 92 93 94 95 96 96 96 97 98 100 101 101 99 98 99 100 100 99 97 94 92 91 89 85 84 85 83 82 83 85 88 90 89 88 88 88 88 88 89 90
27 27 28 30 31 32 33 35 36 37 39 40 42 43 45 46 48 49 51 52 54 56 57 59 61 62 64 65 67 69 70 72 73 75 76 78 79 81 82 84 85 86 87 88 89 90 92 94 96 97 98 100 100 98 96 95 94 96 97 97 94 93 95 97 98 99 98 94 92 92 90 86 84 84 82 80 80 81 82 84 82 82 83 83 83 84 84 85
28 30 31 32 33 35 36 38 39 40 42 43 45 46 48 49 51 52 53 55 57 58 60 61 63 64 66 67 69 70 72 73 75 76 78 79 81 82 84 85 86 87 88 89 90 91 93 94 95 95 96 98 98 96 94 93 93 94 96 95 92 92 95 97 99 101 101 99 96 95 94 91 87 85 83 82 82 82 82 81 79 79 79 79 80 81 81 82
31 32 33 35 36 37 39 40 41 43 44 46 47 49 50 51 53 54 56 57 58 60 61 63 64 65 67 68 70 71 73 75 76 78 79 81 82 84 85 86 88 89 90 91 91 91 90 90 89 89 89 92 93 92 91 92 94 96 98 96 93 93 96 98 100 102 103 102 100 98 99 98 96 92 90 89 87 85 84 81 79 79 78 78 78 78 78 78
33 34 36 37 38 40 41 42 44 45 46 48 49 51 52 53 54 56 57 58 59 61 62 63 65 66 67 68 70 71 73 75 77 79 81 83 84 86 87 88 89 89 89 89 88 87 86 85 85 84 84 88 90 90 91 92 94 97 100 98 94 94 96 98 99 102 103 104 103 101 100 102 102 100 97 95 93 90 89 86 82 80 78 77 76 75 75 75
35 36 38 39 40 42 43 44 45 47 48 49 50 52 53 54 55 57 58 59 60 61 62 63 65 66 68 69 71 72 74 76 77 80 82 84 85 86 86 86 86 85 85 84 84 84 83 83 83 82 81 83 86 87 89 92 94 96 99 98 95 94 95 96 98 101 102 103 104 102 101 102 103 103 102 100 99 97 95 92 88 84 80 79 77 76 75 75
36 38 39 41 42 43 45 46 47 48 49 50 51 52 53 54 55 56 57 58 60 61 63 64 66 68 70 72 73 75 77 78 79 80 81 82 82 81 81 80 80 80 80 81 82 83 82 82 82 81 79 80 82 83 86 90 93 96 99 97 94 93 93 93 94 96 98 100 101 100 100 100 102 103 103 103 103 103 102 99 95 90 86 84 83 81 79 78
38 40 41 42 44 45 46 47 48 48 49 50 50 51 52 53 54 56 58 59 61 63 65 67 69 71 73 75 76 78 79 80 80 79 78 77 76 76 76 76 77 77 78 79 80 81 81 81 81 80 78 77 80 81 82 86 90 95 99 97 93 91 90 89 90 92 94 98 100 98 98 98 99 100 101 101 102 103 104 103 101 97 93 91 90 88 85 82
40 41 42 43 43 44 44 45 46 47 48 49 50 51 53 54 56 58 60 62 64 66 68 70 71 73 74 76 77 77 76 76 75 74 73 73 73 73 73 74 75 75 75 76 78 80 81 81 81 80 78 76 78 81 82 84 87 92 99 98 93 91 90 88 88 89 91 95 97 95 94 95 96 96 97 97 97 98 99 100 102 101 98 95 94 92 89 85
Wind_Direction
259 260 260 261 261 262 262 263 263 263 263 264 264 265 266 267 268 268 269 269 268 268 267 267 267 267 267 267 267 267 266 265 263 260 258 255 254 252 250 248 245 243 241 239 238 237 237 237 237 237 235 233 229 226 222 219 217 215 212 209 209 212 216 221 227 234 240 245 251 256 261 265 269 271 274 276 278 280 282 283 285 286 288 290 291 292 294 295
261 262 263 263 264 264 264 264 264 264 264 265 265 266 266 267 267 267 267 266 266 265 265 265 265 265 265 265 264 264 262 261 259 256 253 250 248 245 242 240 237 235 233 231 229 227 226 225 224 221 218 215 213 211 209 206 203 200 198 199 203 209 216 223 230 238 244 249 255 260 264 268 270 272 274 276 278 280 282 283 285 286 288 290 291 292 293 294
263 264 264 265 265 265 265 265 265 265 265 266 266 266 266 266 266 265 264 263 262 262 262 261 261 261 261 261 259 258 257 254 251 247 243 239 236 232 229 226 223 221 218 215 213 210 208 206 203 200 199 199 198 195 193 190 188 187 190 196 203 211 220 229 236 242 248 254 258 263 266 268 270 272 274 276 279 280 282 284 285 287 288 290 291 291 292 293
265 266 266 266 266 266 266 266 266 266 266 266 266 265 264 263 262 260 258 257 257 256 256 257 256 256 255 253 252 249 245 241 236 231 227 223 219 215 211 207 202 199 195 192 190 188 186 185 184 184 184 183 180 177 177 177 178 183 190 199 208 218 227 235 241 247 252 257 259 263 265 267 270 273 276 277 280 282 283 285 287 288 289 290 291 291 292 293
268 267 267 266 266 266 265 265 265 264 264 263 262 260 258 256 254 252 250 250 250 250 251 250 249 248 246 243 238 232 226 221 217 211 207 203 198 191 185 179 175 172 170 169 168 168 168 169 170 170 169 167 166 166 168 172 178 186 197 207 217 226 233 239 244 249 253 257 259 262 265 268 272 275 277 279 281 283 285 287 289 290 290 291 291 292 293 294
266 265 264 263 263 262 262 261 261 260 259 257 254 252 249 246 244 243 243 243 243 243 242 240 237 234 228 221 214 209 204 199 194 187 181 175 168 161 158 156 154 153 153 154 155 156 156 157 158 157 156 157 158 162 168 176 185 196 207 216 225 231 237 242 246 251 255 258 261 264 267 270 273 276 279 281 283 285 287 289 290 291 291 292 292 293 294 295
261 260 259 258 257 256 256 255 254 252 251 248 245 242 239 237 235 234 232 230 228 226 222 218 212 206 200 193 187 181 175 171 164 158 152 148 146 144 143 142 142 143 144 145 146 146 147 148 148 148 150 154 159 166 175 185 196 206 215 223 230 236 242 246 250 254 258 261 264 267 270 272 275 278 280 282 284 286 288 289 290 291 292 292 293 294 295 296
255 254 252 251 250 249 248 246 245 244 241 238 234 230 227 224 220 215 210 205 200 195 189 184 179 173 168 161 157 152 149 148 143 139 137 136 136 135 135 135 137 138 139 139 139 140 141 142 143 146 151 158 166 176 187 196 205 213 221 227 234 240 247 252 256 259 263 266 269 271 273 275 278 280 282 283 285 286 287 288 289 290 291 292 293 294 295 296
250 248 245 242 239 237 234 231 228 223 218 213 208 206 202 197 191 185 178 171 165 159 155 152 148 145 142 139 137 136 135 135 132 131 130 130 129 129 129 130 131 132 132 133 134 135 137 140 144 151 159 168 178 188 197 205 212 219 226 232 238 246 252 258 262 265 268 271 273 275 277 278 280 282 283 285 286 286 287 288 289 290 291 292 293 294 295 296
236 228 220 214 209 202 194 186 178 172 167 163 163 165 164 161 156 150 145 142 140 138 136 135 133 132 131 129 129 129 129 128 126 125 124 123 123 123 123 125 125 126 128 129 132 135 139 145 153 161 171 180 189 197 204 212 218 225 232 239 246 252 258 263 267 269 272 274 276 277 279 281 282 284 285 285 286 287 288 288 289 290 291 292 293 294 295 296
182 174 168 164 158 152 148 144 142 140 138 137 137 139 139 137 134 132 132 132 132 131 130 128 128 126 125 125 124 124 123 121 119 118 118 118 118 119 121 122 124 126 128 132 136 142 149 156 164 173 181 189 196 203 211 218 226 234 241 248 253 258 263 267 270 272 274 276 278 280 281 282 283 284 285 286 286 287 288 289 290 290 291 292 293 294 295 296
139 137 134 133 131 131 130 130 130 129 129 129 130 130 128 127 128 129 130 130 128 126 125 124 123 122 121 120 119 119 118 116 115 116 116 117 119 120 123 125 128 131 135 140 146 153 160 167 174 182 190 198 204 211 220 229 236 243 249 252 256 261 265 269 271 273 275 277 279 281 283 284 285 285 285 286 287 287 288 289 290 291 292 293 293 294 295 296
122 121 122 122 122 123 123 124 124 124 125 126 125 124 122 124 127 127 127 125 123 122 121 120 119 119 118 116 116 116 116 116 116 118 119 121 122 125 128 131 135 139 144 149 155 161 168 175 181 189 197 206 214 222 232 240 246 251 254 257 259 263 266 268 271 273 275 278 280 282 283 284 285 285 285 286 287 288 289 290 291 292 292 293 294 295 296 296
115 115 116 117 118 118 119 120 121 121 121 120 119 118 120 123 124 123 121 120 119 118 118 118 118 117 116 116 116 116 117 118 119 121 123 125 127 131 134 138 143 147 152 157 162 168 175 182 190 198 207 216 225 232 241 247 251 255 258 260 262 264 266 269 272 275 277 279 281 283 284 284 284 286 286 287 288 288 289 290 291 292 293 294 295 296 297 297
113 113 113 114 114 114 115 115 115 115 115 115 116 118 120 120 119 118 118 117 117 117 117 116 116 116 116 117 118 119 120 121 122 124 126 129 132 135 139 144 148 153 158 163 168 175 183 192 202 210 219 228 236 241 246 251 256 260 264 265 266 267 269 271 274 277 280 282 283 284 285 285 286 286 287 288 289 289 290 291 292 293 294 295 296 297 297 298
112 111 110 109 108 108 108 109 110 111 113 115 117 118 118 117 116 116 116 116 116 116 116 116 117 117 117 118 120 122 123 123 125 128 130 133 136 139 143 148 153 158 163 169 176 185 195 205 216 224 231 239 245 249 252 257 263 267 271 272 272 273 275 276 277 280 282 284 285 286 287 288 288 288 288 289 290 290 291 292 293 294 295 296 296 297 297 298
110 108 107 106 105 105 106 107 109 110 113 115 116 116 116 116 116 115 115 116 115 116 116 117 118 118 118 121 123 124 125 127 129 131 134 137 140 143 148 152 158 164 170 178 187 198 209 218 228 235 241 248 254 258 262 267 271 275 276 277 277 278 280 281 282 284 286 287 288 288 289 289 290 290 290 290 291 291 292 293 293 294 295 296 296 297 297 298
109 107 106 106 106 106 107 108 109 110 112 113 114 115 116 116 115 115 115 115 116 116 116 119 120 119 122 125 125 127 129 131 133 135 138 141 144 148 153 158 164 172 181 192 204 215 226 234 242 249 254 259 263 267 272 276 279 280 280 281 281 282 284 285 287 288 289 290 289 290 291 290 290 291 291 291 292 293 293 293 294 295 295 296 296 297 298 299
109 108 108 107 107 107 108 109 110 110 111 112 113 114 115 116 116 116 117 117 118 119 119 122 122 123 127 129 129 132 133 134 136 139 141 144 149 153 159 167 177 190 202 215 229 240 248 254 259 264 267 270 274 277 280 282 282 283 283 284 285 286 287 288 290 290 291 292 292 292 293 292 291 292 292 292 293 293 294 295 295 295 296 296 297 298 299 300
110 110 109 109 110 110 110 110 111 111 112 113 113 114 115 117 117 118 119 120 120 120 122 124 124 125 128 129 132 134 135 136 138 141 145 148 155 161 170 184 200 218 232 246 258 266 269 272 275 276 278 280 282 283 284 284 284 284 285 286 288 289 289 290 291 292 293 294 294 294 295 293 292 292 292 293 294 294 295 295 295 296 296 297 298 299 300 301
111 112 112 112 113 113 113 112 112 113 113 114 114 115 116 117 117 119 121 120 120 120 122 123 122 123 126 127 130 132 134 137 139 142 147 152 163 181 202 226 242 254 264 271 276 280 282 284 285 285 286 286 286 286 285 285 285 286 287 288 289 291 292 292 292 293 294 295 295 295 296 295 293 293 293 294 295 295 296 296 296 296 297 297 299 300 301 302
114 114 114 115 115 115 115 114 114 114 114 114 114 114 116 115 115 118 120 119 120 120 120 120 119 121 124 126 128 131 134 136 138 145 156 173 211 245 264 271 276 279 280 282 284 286 288 289 290 291 290 289 287 286 286 287 287 288 289 290 291 292 294 295 295 294 294 294 294 295 298 298 296 295 294 295 295 295 295 295 295 295 296 298 299 301 302 303
116 116 116 116 116 117 117 116 116 116 116 115 115 116 117 115 114 116 117 117 118 118 118 118 118 120 121 123 125 127 129 135 150 184 238 265 274 279 283 285 285 287 288 289 290 291 291 292 292 291 290 289 289 288 289 290 291 292 292 293 294 293 294 295 295 295 295 294 294 293 297 301 299 297 296 296 297 296 296 296 296 296 297 299 301 302 303 304
118 117 118 118 118 118 118 119 119 120 119 118 118 120 120 117 117 119 118 115 115 115 115 112 111 113 111 112 113 114 111 343 297 287 284 288 289 286 288 290 291 292 293 294 294 293 292 292 292 292 292 292 292 293 293 293 294 294 295 295 295 295 294 294 294 295 297 297 297 294 295 300 301 298 296 298 298 297 298 298 298 299 300 301 303 304 304 304
119 119 119 119 120 120 120 121 121 122 121 120 122 124 122 119 119 121 120 115 111 108 107 104 102 102 102 99 72 353 323 313 298 291 290 291 292 293 294 295 295 295 294 294 294 294 294 294 295 296 296 296 296 296 295 295 295 295 296 296 296 296 296 295 295 296 297 298 298 296 295 299 302 299 296 296 298 297 297 298 299 299 300 302 303 304 304 304
121 121 120 121 121 121 122 123 123 122 121 121 124 125 123 121 121 122 121 117 112 107 107 109 106 94 76 334 309 305 300 295 288 286 291 293 293 293 294 294 294 294 294 295 296 297 297 298 299 300 300 299 299 298 298 298 298 297 297 297 297 297 297 297 296 296 295 296 297 296 294 296 301 301 297 296 297 297 297 298 299 300 301 302 303 304 304 304
124 123 123 123 123 124 124 124 123 121 120 123 127 127 125 126 126 125 122 120 120 119 126 123 101 276 284 290 289 289 289 288 289 290 292 293 293 292 293 294 295 296 296 298 299 299 300 301 301 301 301 301 300 300 300 299 299 298 298 298 298 297 297 296 296 296 295 296 297 296 295 296 300 302 299 298 298 298 298 299 300 300 301 302 303 303 303 303
127 127 128 127 127 128 128 127 124 122 123 127 131 132 133 134 133 133 132 136 146 156 224 270 294 279 278 288 287 289 292 293 294 294 294 295 295 295 296 297 298 300 300 301 301 301 301 301 301 301 301 300 300 299 299 299 298 298 297 297 297 296 296 295 295 295 295 296 298 297 297 297 300 303 300 299 299 299 299 299 299 300 300 301 302 302 302 302
131 132 132 132 133 134 133 131 129 129 133 137 141 143 146 148 150 158 169 188 225 265 276 277 286 285 286 292 291 291 294 295 296 296 296 297 298 299 300 300 301 302 302 302 301 301 301 301 301 300 300 299 299 299 298 298 298 297 297 296 296 295 295 295 295 295 294 296 297 298 298 297 300 303 301 300 299 299 299 299 299 299 300 300 300 300 301 302
137 137 138 139 140 141 140 140 141 144 149 154 159 164 170 181 192 209 229 251 263 273 279 282 286 289 291 294 295 295 296 297 297 298 298 299 300 300 300 300 301 301 301 300 300 300 300 300 300 299 299 299 299 298 298 297 296 296 295 294 294 294 294 295 296 296 295 296 297 298 299 298 300 302 301 300 300 299 299 299 299 300 300 300 300 300 301 301
144 145 146 147 148 150 151 154 157 163 172 181 193 202 213 226 239 248 257 270 278 282 287 290 292 295 295 296 297 298 299 299 300 300 300 300 300 300 300 300 299 300 300 300 300 299 299 299 299 298 298 297 297 297 296 295 295 294 294 293 293 293 293 294 295 295 296 296 297 298 298 299 300 300 300 300 300 299 299 299 299 300 300 299 299 300 301 300
151 153 155 158 160 163 166 173 182 192 203 215 227 236 244 253 261 268 273 279 285 289 292 294 296 297 297 298 298 299 300 300 301 301 301 301 300 300 300 299 298 298 298 299 299 299 298 298 297 297 296 295 295 295 294 295 295 295 295 294 293 293 292 293 293 293 294 294 295 297 298 299 301 300 300 299 299 299 299 298 299 300 299 298 299 300 300 300
161 164 167 171 176 181 186 196 208 219 230 242 252 258 262 268 273 277 282 286 289 292 294 296 297 298 298 298 298 299 300 300 300 300 300 300 299 298 298 298 297 297 296 296 297 297 298 297 296 296 296 295 295 295 294 294 295 295 295 294 294 293 292 293 293 294 294 295 296 297 298 299 300 300 299 299 298 298 298 298 300 299 298 299 300 301 301 300
174 178 183 189 196 205 212 221 230 239 249 257 265 271 274 278 281 284 288 290 292 295 296 297 298 298 298 298 299 299 299 299 299 299 298 298 297 297 297 296 296 295 294 295 294 295 296 296 295 295 295 295 295 294 294 294 295 295 295 295 295 295 295 296 296 296 297 297 298 299 299 300 300 300 299 299 298 298 298 299 299 298 298 299 300 300 300 300
190 195 202 208 216 225 234 242 250 257 265 271 276 280 283 286 288 290 292 293 295 296 296 297 297 296 297 297 297 297 297 297 297 297 297 296 296 295 295 294 294 294 293 293 293 293 294 295 294 294 294 294 295 295 295 295 295 296 296 296 297 297 298 298 299 300 300 299 299 300 300 300 301 300 299 299 298 297 298 298 298 297 298 299 299 299 299 299
204 211 218 226 234 243 250 258 264 270 274 279 282 284 287 290 291 292 294 295 295 295 295 296 295 295 295 295 295 296 296 296 295 295 295 294 294 294 293 293 292 292 292 292 292 292 293 294 294 294 295 295 296 297 297 297 298 298 298 298 298 299 299 300 300 301 301 300 300 300 300 300 300 298 298 297 297 297 297 297 296 297 298 298 298 298 298 298
217 224 231 238 246 253 259 265 270 273 277 280 282 284 287 289 290 291 292 293 294 294 294 294 294 294 293 294 294 294 294 294 294 294 293 293 293 292 292 292 292 292 292 292 292 292 293 295 296 296 297 298 298 299 299 299 300 300 300 299 299 300 300 300 301 301 300 299 299 299 298 298 298 297 295 295 296 297 298 297 298 299 299 300 300 299 299 299
226 233 239 246 253 259 264 268 272 274 277 280 281 283 284 286 287 289 290 291 291 292 292 292 292 292 292 292 292 292 293 293 293 293 293 292 293 292 292 293 293 293 293 293 294 295 295 297 297 297 298 299 299 300 300 300 300 301 301 300 301 301 301 300 300 300 299 298 297 297 296 298 300 299 297 297 298 299 299 299 300 300 300 300 299 299 299 298
237 242 248 254 260 264 268 271 273 275 277 279 280 282 283 285 286 287 288 289 289 290 291 291 291 291 291 292 292 292 293 293 293 294 294 294 294 294 294 294 294 295 295 296 297 297 298 298 299 299 299 300 300 300 300 301 301 301 300 300 300 300 300 300 300 300 299 299 299 298 299 302 302 301 300 300 300 300 299 299 299 299 298 298 298 297 297 297
246 250 255 259 263 267 271 273 275 277 278 279 281 282 283 284 285 286 286 287 288 289 290 290 291 291 292 292 293 293 294 294 294 294 294 295 295 295 295 296 296 297 298 298 299 299 300 300 301 301 301 301 302 301 301 301 301 300 300 299 299 299 299 299 299 300 300 301 301 301 302 303 301 300 300 300 299 299 298 298 298 298 298 297 297 297 297 297
252 255 259 263 267 269 272 274 276 277 279 280 281 282 283 284 285 286 287 288 289 290 290 291 291 292 292 293 293 294 294 294 295 295 295 296 296 297 297 298 298 299 300 300 300 301 301 302 302 302 303 302 302 302 302 302 302 301 301 301 301 301 301 300 300 300 300 300 300 300 301 301 300 299 300 299 299 299 298 297 298 298 298 297 296 296 296 297
256 260 263 266 269 271 273 275 277 278 280 282 283 284 285 286 287 288 289 290 290 291 291 292 292 292 293 293 294 294 295 295 296 297 297 298 298 299 299 300 300 301 301 302 302 303 303 303 303 303 303 303 302 303 303 303 303 303 302 302 302 302 301 301 300 300 300 299 299 299 299 299 299 300 300 300 300 299 298 298 298 298 297 296 297 297 297 297
260 263 266 269 271 273 275 277 279 281 283 284 285 286 287 288 289 290 291 291 292 292 293 293 293 293 294 294 295 296 297 298 298 299 300 300 300 301 301 301 302 302 302 303 303 303 303 303 303 303 303 303 302 303 303 303 303 302 301 301 301 301 300 301 301 301 300 300 300 299 299 300 300 299 299 299 298 298 297 297 298 298 297 296 297 297 297 297
263 266 269 272 274 277 279 280 282 283 284 286 287 288 288 289 290 291 292 292 292 293 293 294 295 295 296 296 297 298 299 300 300 300 301 301 301 301 302 302 302 303 303 304 304 304 304 304 304 304 303 302 302 302 302 302 301 300 300 300 301 301 302 302 302 301 301 301 301 301 301 302 301 300 299 298 297 296 296 296 297 296 296 296 296 296 296 296
267 270 273 276 277 280 281 282 284 285 286 288 289 289 290 291 292 292 293 293 294 295 295 296 297 297 298 299 299 300 300 300 300 300 301 301 301 302 302 302 303 304 304 305 305 305 305 305 305 305 305 304 303 304 304 303 303 302 302 302 303 304 305 305 305 304 303 304 305 304 304 304 304 302 302 301 299 298 297 297 298 298 298 298 298 297 297 297
273 275 277 279 281 282 284 285 287 288 289 290 291 291 292 293 293 294 295 295 296 297 298 298 299 299 299 300 300 300 300 301 300 300 301 301 301 302 302 303 304 305 306 306 305 305 305 305 305 306 306 306 306 307 307 307 307 306 305 305 307 309 308 308 308 308 308 308 309 309 308 308 307 306 305 305 303 302 301 300 301 301 301 301 301 301 301 300
277 279 281 282 284 285 286 288 289 290 291 292 293 293 294 295 296 296 297 297 298 298 298 299 299 299 300 300 300 301 301 301 301 301 302 302 303 304 305 306 306 306 306 305 305 305 305 306 306 307 308 308 308 309 310 310 310 309 308 308 311 312 311 311 311 310 310 311 311 312 312 312 311 310 310 309 307 305 304 303 303 303 303 303 303 303 302 302
280 282 284 285 286 288 289 290 291 292 293 294 295 296 296 297 297 297 297 297 297 297 298 298 299 299 299 300 300 301 301 302 303 304 305 305 306 306 307 307 307 306 306 306 306 307 307 307 308 309 310 310 311 313 313 313 312 311 309 310 312 312 311 311 311 311 311 312 312 313 313 313 312 312 311 310 309 308 307 307 306 305 304 304 302 302 302 301
284 286 288 289 290 291 292 293 294 295 295 296 296 296 296 296 296 296 296 296 297 297 298 299 299 300 300 301 301 302 303 303 304 305 305 306 306 307 307 307 307 308 308 308 308 308 308 308 309 310 312 312 313 314 314 312 310 309 308 309 310 310 311 312 311 311 311 311 311 312 312 311 311 311 311 311 311 310 309 309 308 307 306 305 304 303 303 303
288 289 290 291 292 293 293 294 294 294 294 294 294 294 294 295 296 296 297 298 299 299 300 301 302 302 303 303 304 304 304 304 305 305 306 306 307 308 308 308 309 309 309 309 308 308 308 309 309 310 312 312 312 312 311 309 307 306 305 306 308 309 310 311 309 308 308 308 309 310 310 310 310 310 310 310 310 310 310 310 310 309 308 307 307 306 305 304
290 290 291 291 292 292 292 292 292 292 292 293 293 294 295 296 297 299 300 301 302 303 304 304 305 305 305 305 305 305 306 307 307 308 309 309 310 310 310 310 310 309 309 309 308 308 308 308 309 310 311 311 310 309 307 305 305 303 302 304 306 307 308 308 307 306 306 307 308 309 309 309 308 307 307 308 308 309 310 310 309 308 308 308 308 307 306 305
290 291 291 291 291 291 291 291 292 293 294 295 296 297 299 300 302 303 305 305 305 305 305 305 305 305 305 306 306 307 309 310 311 312 312 312 312 312 311 311 310 310 309 308 308 308 308 308 308 308 308 309 308 307 305 304 303 302 301 303 305 306 307 307 308 308 307 307 307 309 308 306 305 305 306 306 307 308 307 307 307 307 307 307 307 306 306 306
Height
10690 10690 10689 10689 10688 10688 10688 10688 10687 10686 10685 10685 10685 10685 10686 10686 10687 10688 10689 10689 10688 10688 10687 10687 10687 10687 10688 10688 10689 10690 10690 10691 10691 10691 10691 10692 10693 10694 10695 10697 10698 10700 10702 10704 10706 10708 10710 10712 10714 10716 10717 10718 10720 10721 10722 10723 10723 10724 10724 10724 10724 10725 10725 10725 10725 10724 10724 10723 10723 10722 10721 10720 10719 10717 10716 10714 10712 10711 10709 10707 10705 10703 10701 10699 10697 10695 10693 10691
10685 10684 10684 10683 10683 10682 10682 10682 10681 10680 10680 10680 10680 10680 10681 10682 10682 10682 10683 10683 10682 10682 10682 10682 10683 10683 10684 10685 10686 10686 10687 10687 10688 10688 10688 10689 10690 10691 10693 10694 10696 10698 10700 10702 10704 10706 10708 10710 10712 10714 10715 10717 10718 10719 10720 10721 10722 10722 10723 10723 10724 10724 10724 10724 10724 10724 10723 10722 10722 10721 10720 10718 10717 10715 10714 10712 10710 10708 10706 10704 10702 10700 10698 10696 10694 10691 10689 10687
10679 10679 10678 10678 10677 10676 10676 10675 10674 10674 10674 10674 10674 10675 10676 10676 10676 10677 10677 10677 10677 10677 10677 10678 10679 10680 10681 10682 10683 10684 10684 10685 10685 10686 10686 10687 10688 10689 10691 10692 10694 10696 10699 10701 10703 10705 10707 10709 10711 10713 10714 10716 10717 10718 10719 10720 10721 10722 10722 10723 10723 10724 10724 10724 10723 10723 10722 10721 10721 10720 10718 10717 10715 10713 10712 10710 10708 10706 10703 10701 10699 10697 10694 10692 10690 10688 10686 10684
10673 10672 10672 10671 10670 10669 10669 10668 10668 10668 10668 10669 10669 10670 10671 10671 10671 10672 10672 10672 10672 10673 10674 10675 10677 10678 10679 10680 10681 10682 10682 10683 10683 10684 10685 10686 10687 10688 10690 10692 10694 10696 10698 10701 10703 10705 10707 10709 10711 10712 10714 10715 10717 10718 10719 10720 10721 10722 10722 10723 10723 10723 10723 10723 10723 10722 10721 10720 10719 10718 10717 10715 10713 10711 10709 10707 10705 10703 10701 10698 10696 10693 10691 10689 10686 10684 10683 10681
10667 10666 10665 10665 10664 10663 10663 10662 10662 10663 10663 10664 10665 10665 10666 10666 10667 10667 10667 10668 10669 10671 10672 10673 10675 10676 10677 10678 10679 10680 10681 10681 10682 10683 10684 10685 10687 10688 10690 10692 10694 10696 10699 10701 10703 10706 10708 10709 10711 10713 10714 10716 10717 10718 10720 10720 10721 10722 10723 10723 10723 10723 10723 10722 10721 10721 10719 10718 10717 10716 10714 10712 10711 10709 10707 10705 10702 10700 10698 10695 10692 10690 10687 10685 10683 10680 10678 10676
10661 10660 10660 10659 10659 10658 10658 10658 10658 10659 10659 10660 10660 10661 10662 10662 10663 10664 10665 10666 10668 10669 10670 10672 10673 10674 10676 10677 10678 10679 10680 10681 10682 10683 10685 10686 10688 10689 10691 10693 10695 10697 10700 10702 10704 10706 10708 10710 10712 10714 10715 10717 10718 10719 10720 10721 10722 10722 10723 10723 10723 10723 10722 10721 10720 10719 10718 10716 10715 10713 10711 10710 10708 10706 10704 10701 10699 10697 10694 10691 10689 10686 10683 10681 10678 10676 10674 10671
10657 10656 10655 10655 10655 10654 10654 10655 10655 10655 10656 10657 10657 10658 10659 10659 10660 10662 10663 10664 10666 10668 10669 10671 10672 10673 10675 10676 10678 10679 10680 10682 10683 10685 10686 10688 10689 10691 10693 10695 10697 10699 10701 10703 10706 10708 10710 10712 10713 10715 10716 10718 10719 10720 10721 10722 10722 10723 10723 10723 10722 10722 10721 10720 10718 10717 10716 10714 10712 10711 10709 10707 10705 10703 10700 10698 10696 10693 10690 10688 10685 10682 10679 10677 10674 10671 10669 10666
10653 10652 10652 10652 10652 10652 10652 10653 10653 10654 10654 10655 10656 10656 10657 10658 10659 10660 10662 10663 10665 10667 10669 10670 10672 10674 10675 10677 10678 10680 10682 10683 10684 10686 10687 10689 10691 10692 10695 10697 10699 10701 10703 10705 10708 10710 10712 10713 10715 10717 10718 10719 10720 10721 10722 10722 10722 10722 10722 10722 10721 10720 10719 10718 10717 10715 10714 10712 10710 10708 10706 10704 10702 10699 10697 10695 10692 10689 10687 10684 10681 10678 10675 10672 10669 10666 10663 10661
10651 10650 10650 10650 10650 10651 10651 10652 10652 10652 10653 10654 10654 10655 10656 10657 10659 10660 10662 10663 10665 10667 10669 10671 10673 10675 10676 10678 10680 10681 10683 10685 10686 10688 10690 10692 10693 10696 10698 10700 10702 10704 10706 10708 10710 10712 10714 10716 10717 10718 10719 10720 10721 10722 10722 10722 10722 10721 10721 10720 10719 10718 10717 10716 10714 10713 10711 10709 10707 10705 10703 10701 10698 10696 10693 10691 10688 10686 10683 10680 10677 10674 10671 10668 10665 10662 10658 10656
10650 10649 10649 10649 10650 10650 10650 10650 10651 10651 10652 10653 10654 10655 10656 10658 10659 10661 10663 10665 10667 10669 10671 10672 10674 10676 10678 10679 10681 10683 10685 10687 10689 10691 10693 10695 10697 10699 10702 10704 10706 10708 10710 10711 10713 10715 10716 10717 10718 10719 10720 10721 10721 10721 10721 10721 10721 10720 10719 10719 10717 10716 10715 10713 10712 10710 10708 10706 10704 10702 10700 10697 10695 10692 10690 10687 10685 10682 10679 10676 10673 10670 10667 10664 10660 10657 10654 10650
10649 10649 10649 10649 10649 10649 10650 10650 10651 10651 10652 10653 10654 10655 10657 10658 10660 10662 10664 10666 10668 10670 10672 10674 10676 10678 10680 10682 10684 10686 10688 10690 10692 10695 10697 10699 10701 10703 10705 10707 10709 10711 10712 10714 10715 10717 10717 10718 10719 10719 10720 10720 10720 10720 10720 10720 10719 10718 10717 10716 10715 10714 10712 10711 10709 10708 10706 10704 10701 10699 10697 10694 10692 10689 10686 10683 10681 10678 10675 10672 10669 10665 10662 10658 10655 10652 10649 10645
10650 10650 10650 10650 10650 10650 10651 10651 10652 10652 10653 10654 10655 10657 10658 10660 10662 10664 10666 10669 10671 10673 10675 10677 10679 10681 10684 10686 10688 10690 10692 10693 10696 10698 10701 10703 10704 10706 10708 10710 10711 10713 10714 10715 10716 10717 10718 10718 10719 10719 10719 10719 10719 10719 10719 10718 10717 10716 10715 10714 10713 10711 10710 10709 10707 10705 10703 10701 10698 10696 10694 10691 10688 10685 10683 10680 10677 10674 10671 10667 10664 10660 10657 10653 10650 10647 10644 10640
10652 10652 10652 10652 10652 10652 10653 10653 10654 10654 10655 10656 10657 10659 10661 10663 10665 10667 10670 10672 10674 10676 10678 10681 10683 10685 10687 10690 10692 10694 10695 10697 10699 10701 10703 10705 10707 10709 10711 10712 10713 10714 10715 10716 10717 10717 10718 10718 10718 10719 10719 10719 10719 10718 10718 10717 10716 10715 10714 10712 10711 10709 10708 10706 10704 10702 10700 10698 10695 10693 10690 10688 10684 10681 10679 10676 10673 10670 10667 10663 10659 10656 10652 10648 10645 10642 10638 10635
10655 10655 10655 10655 10655 10656 10656 10656 10657 10658 10658 10659 10661 10662 10665 10667 10669 10671 10673 10675 10678 10680 10683 10685 10688 10689 10691 10693 10696 10698 10699 10700 10702 10704 10706 10708 10709 10711 10712 10714 10715 10715 10716 10717 10717 10718 10718 10718 10718 10718 10718 10718 10717 10717 10716 10716 10715 10714 10712 10711 10709 10707 10705 10704 10701 10699 10697 10695 10692 10689 10686 10684 10681 10678 10674 10671 10668 10665 10662 10659 10655 10651 10647 10643 10640 10636 10632 10629
10659 10659 10660 10660 10660 10660 10660 10660 10661 10662 10662 10664 10665 10667 10669 10672 10673 10675 10678 10680 10682 10685 10687 10690 10692 10693 10695 10697 10699 10701 10702 10703 10705 10707 10709 10710 10712 10713 10714 10715 10716 10717 10717 10718 10718 10718 10718 10718 10718 10718 10718 10717 10716 10716 10715 10714 10713 10711 10710 10708 10707 10705 10703 10700 10698 10696 10693 10691 10689 10686 10682 10679 10677 10674 10670 10667 10664 10660 10657 10654 10650 10646 10642 10638 10634 10630 10626 10622
10663 10664 10664 10665 10665 10665 10665 10666 10667 10667 10668 10670 10671 10673 10674 10676 10679 10681 10683 10685 10687 10689 10692 10694 10696 10697 10699 10701 10703 10705 10705 10706 10708 10710 10711 10712 10714 10715 10716 10717 10718 10718 10718 10718 10718 10718 10718 10718 10718 10717 10717 10716 10715 10714 10713 10712 10710 10709 10707 10706 10704 10702 10699 10697 10695 10692 10690 10687 10685 10683 10679 10675 10672 10670 10666 10662 10659 10655 10652 10648 10645 10641 10636 10632 10628 10624 10620 10616
10668 10669 10669 10670 10671 10671 10672 10673 10674 10675 10676 10677 10678 10679 10680 10681 10684 10686 10689 10691 10693 10695 10696 10699 10700 10701 10703 10705 10707 10708 10709 10710 10711 10712 10713 10714 10715 10716 10717 10718 10718 10718 10718 10718 10718 10718 10718 10717 10717 10716 10716 10715 10714 10713 10711 10710 10708 10706 10705 10703 10701 10699 10696 10694 10691 10689 10686 10684 10681 10679 10675 10672 10668 10664 10661 10658 10653 10650 10646 10642 10638 10635 10631 10626 10622 10618 10614 10611
10673 10674 10675 10676 10677 10678 10679 10680 10681 10683 10684 10685 10686 10686 10686 10687 10689 10692 10694 10696 10698 10700 10701 10704 10705 10705 10707 10708 10710 10711 10712 10712 10713 10714 10715 10716 10717 10717 10718 10718 10718 10718 10719 10718 10718 10718 10717 10717 10716 10715 10714 10713 10712 10711 10709 10707 10706 10704 10702 10700 10697 10695 10693 10690 10688 10686 10683 10680 10677 10675 10671 10667 10664 10659 10656 10653 10648 10644 10640 10636 10632 10628 10625 10620 10616 10612 10607 10604
10678 10679 10680 10681 10683 10685 10686 10687 10688 10689 10691 10692 10694 10694 10694 10693 10694 10696 10698 10700 10702 10704 10705 10708 10708 10709 10710 10711 10712 10713 10714 10715 10715 10716 10717 10717 10718 10718 10719 10719 10719 10719 10719 10719 10719 10718 10718 10717 10716 10715 10713 10712 10710 10709 10707 10705 10703 10701 10699 10696 10694 10692 10690 10687 10684 10682 10680 10676 10672 10671 10667 10661 10659 10655 10650 10648 10643 10639 10634 10629 10625 10622 10618 10613 10609 10605 10601 10596
10683 10684 10685 10686 10688 10690 10692 10693 10694 10695 10696 10698 10699 10701 10701 10700 10700 10701 10703 10705 10706 10708 10710 10712 10712 10713 10715 10716 10716 10717 10717 10717 10718 10718 10719 10719 10719 10719 10720 10720 10720 10720 10720 10719 10719 10718 10717 10716 10715 10713 10712 10710 10708 10706 10704 10702 10700 10698 10695 10693 10691 10688 10685 10683 10680 10677 10676 10673 10667 10666 10663 10655 10653 10651 10645 10642 10637 10632 10629 10623 10618 10615 10611 10607 10603 10599 10595 10590
10689 10690 10690 10691 10693 10695 10696 10698 10700 10701 10702 10703 10704 10706 10708 10707 10707 10708 10708 10709 10711 10712 10714 10716 10716 10718 10720 10720 10721 10721 10721 10721 10721 10721 10721 10721 10721 10721 10721 10721 10721 10720 10720 10719 10718 10717 10716 10715 10713 10711 10709 10707 10705 10703 10701 10699 10696 10694 10691 10689 10686 10684 10681 10678 10676 10673 10671 10669 10663 10661 10659 10648 10644 10644 10641 10637 10631 10625 10622 10617 10611 10608 10604 10601 10597 10593 10588 10583
10694 10695 10696 10697 10698 10699 10700 10702 10704 10706 10708 10709 10710 10711 10713 10713 10713 10715 10714 10713 10715 10717 10718 10720 10720 10722 10723 10723 10724 10724 10724 10724 10723 10723 10723 10723 10723 10722 10722 10721 10721 10720 10719 10718 10717 10715 10714 10712 10710 10708 10706 10704 10702 10700 10697 10695 10692 10689 10687 10685 10682 10679 10677 10673 10671 10668 10665 10664 10659 10656 10655 10644 10634 10633 10633 10633 10627 10618 10615 10611 10605 10602 10598 10596 10592 10587 10582 10577
10700 10701 10702 10703 10704 10705 10705 10705 10708 10710 10712 10713 10714 10716 10717 10717 10718 10720 10721 10719 10719 10720 10721 10722 10723 10724 10725 10725 10725 10725 10725 10725 10724 10724 10724 10724 10723 10722 10722 10720 10719 10718 10717 10716 10714 10712 10710 10709 10707 10705 10703 10700 10698 10696 10693 10691 10688 10685 10682 10680 10677 10674 10673 10670 10666 10663 10659 10657 10653 10651 10653 10645 10628 10620 10620 10623 10621 10613 10607 10603 10597 10593 10590 10589 10585 10580 10576 10570
10705 10706 10707 10708 10709 10710 10710 10710 10711 10714 10715 10716 10718 10719 10720 10720 10720 10723 10725 10724 10723 10724 10724 10725 10725 10726 10726 10726 10726 10726 10726 10725 10725 10725 10724 10723 10722 10721 10720 10718 10717 10716 10714 10713 10711 10709 10707 10705 10703 10701 10699 10696 10694 10692 10689 10687 10684 10681 10678 10675 10673 10669 10666 10665 10662 10659 10653 10650 10645 10640 10646 10646 10631 10615 10610 10613 10614 10608 10601 10596 10590 10585 10581 10580 10577 10573 10567 10562
10711 10711 10712 10713 10713 10714 10715 10715 10715 10717 10719 10719 10721 10722 10722 10723 10723 10725 10726 10727 10727 10726 10727 10727 10727 10727 10727 10727 10726 10726 10725 10725 10724 10724 10723 10722 10720 10719 10718 10716 10715 10713 10711 10710 10708 10706 10704 10702 10700 10697 10695 10692 10690 10687 10685 10683 10679 10676 10673 10670 10667 10664 10660 10657 10655 10653 10649 10646 10640 10630 10632 10641 10634 10614 10604 10604 10605 10601 10597 10592 10586 10579 10575 10573 10570 10565 10560 10554
10715 10716 10717 10717 10718 10719 10720 10720 10720 10721 10722 10723 10724 10725 10725 10725 10726 10727 10728 10728 10728 10728 10727 10727 10727 10727 10727 10726 10726 10725 10725 10724 10723 10722 10721 10720 10719 10717 10715 10714 10712 10710 10709 10707 10705 10703 10701 10699 10697 10694 10691 10688 10686 10683 10680 10678 10675 10671 10668 10664 10661 10658 10654 10651 10647 10645 10642 10640 10636 10626 10621 10631 10632 10614 10600 10598 10595 10592 10589 10586 10581 10574 10569 10567 10562 10557 10551 10544
10719 10720 10721 10722 10723 10723 10724 10725 10725 10725 10726 10727 10727 10728 10728 10728 10728 10728 10728 10728 10728 10728 10728 10727 10727 10727 10726 10726 10725 10725 10724 10723 10722 10721 10720 10718 10717 10715 10713 10712 10710 10708 10706 10704 10702 10700 10698 10696 10693 10691 10688 10685 10682 10679 10676 10673 10670 10666 10662 10659 10656 10651 10648 10644 10640 10637 10634 10634 10631 10622 10613 10617 10624 10610 10595 10593 10588 10582 10580 10576 10573 10567 10561 10559 10554 10548 10543 10536
10723 10724 10724 10725 10726 10727 10727 10728 10728 10728 10729 10730 10730 10730 10730 10730 10729 10729 10729 10729 10728 10728 10728 10727 10727 10726 10726 10725 10725 10724 10723 10722 10721 10720 10718 10717 10715 10713 10711 10709 10707 10705 10703 10701 10699 10696 10695 10692 10690 10687 10684 10681 10677 10674 10671 10667 10664 10661 10656 10653 10649 10645 10641 10637 10634 10630 10626 10626 10623 10618 10609 10607 10614 10602 10585 10585 10582 10574 10572 10567 10562 10558 10553 10550 10545 10539 10534 10529
10726 10727 10727 10728 10729 10729 10730 10730 10730 10731 10731 10731 10731 10731 10731 10731 10730 10730 10730 10729 10729 10729 10728 10728 10727 10726 10726 10725 10724 10723 10722 10721 10720 10718 10716 10715 10713 10711 10709 10707 10705 10703 10700 10698 10695 10693 10691 10688 10685 10682 10679 10676 10672 10668 10665 10661 10658 10654 10650 10647 10642 10638 10635 10630 10627 10623 10620 10620 10616 10611 10603 10599 10606 10597 10575 10571 10571 10565 10562 10556 10551 10547 10543 10539 10534 10528 10524 10520
10728 10729 10730 10730 10731 10731 10731 10732 10732 10732 10732 10732 10732 10732 10732 10732 10731 10731 10731 10730 10730 10729 10729 10728 10727 10727 10726 10724 10723 10722 10721 10719 10718 10716 10715 10713 10711 10709 10707 10705 10702 10700 10697 10694 10692 10688 10686 10684 10681 10677 10674 10671 10667 10663 10659 10655 10651 10647 10643 10640 10636 10632 10628 10624 10620 10615 10611 10611 10608 10605 10598 10591 10596 10592 10572 10560 10556 10553 10549 10543 10538 10536 10532 10527 10521 10517 10514 10509
10731 10731 10732 10732 10733 10733 10733 10733 10733 10733 10733 10733 10733 10733 10733 10732 10732 10732 10731 10731 10730 10729 10729 10728 10727 10726 10725 10723 10722 10721 10719 10717 10716 10714 10712 10710 10708 10706 10703 10701 10699 10696 10693 10690 10687 10683 10681 10679 10676 10672 10669 10665 10662 10658 10653 10648 10643 10639 10635 10631 10628 10624 10621 10619 10615 10610 10606 10603 10601 10599 10593 10586 10585 10581 10568 10554 10545 10541 10536 10530 10527 10524 10519 10513 10509 10507 10502 10497
10733 10733 10734 10734 10734 10734 10734 10734 10734 10734 10734 10734 10734 10733 10733 10733 10732 10732 10731 10730 10730 10729 10728 10727 10726 10724 10723 10722 10720 10719 10717 10715 10713 10711 10709 10707 10704 10702 10700 10697 10694 10692 10690 10687 10683 10679 10675 10673 10670 10666 10662 10658 10655 10651 10646 10642 10637 10631 10626 10621 10617 10614 10612 10612 10608 10603 10601 10598 10596 10593 10587 10582 10577 10569 10560 10548 10538 10532 10524 10519 10519 10514 10506 10501 10499 10495 10489 10483
10734 10735 10735 10735 10735 10735 10735 10735 10735 10735 10735 10735 10734 10734 10733 10732 10732 10731 10730 10729 10728 10727 10726 10725 10724 10722 10721 10719 10718 10716 10715 10712 10710 10708 10706 10704 10701 10699 10696 10693 10690 10688 10685 10683 10680 10676 10670 10666 10663 10660 10656 10651 10647 10643 10639 10636 10631 10625 10619 10613 10609 10603 10600 10603 10601 10597 10594 10590 10590 10588 10581 10577 10572 10561 10549 10539 10531 10524 10515 10510 10508 10501 10493 10489 10488 10483 10476 10469
10735 10735 10736 10736 10736 10736 10736 10736 10736 10736 10735 10735 10734 10733 10733 10732 10731 10730 10729 10728 10727 10725 10724 10723 10721 10720 10718 10717 10715 10713 10711 10709 10707 10705 10702 10700 10697 10694 10692 10689 10686 10682 10680 10677 10674 10672 10667 10660 10656 10653 10650 10645 10641 10636 10630 10627 10624 10619 10611 10604 10600 10594 10587 10588 10589 10586 10584 10581 10581 10580 10575 10570 10564 10553 10539 10528 10521 10512 10504 10502 10496 10486 10480 10478 10476 10472 10465 10458
10735 10736 10736 10736 10736 10736 10736 10736 10736 10736 10735 10734 10734 10733 10732 10731 10730 10729 10727 10726 10725 10723 10722 10721 10719 10717 10715 10714 10712 10710 10708 10706 10704 10701 10698 10696 10692 10690 10686 10683 10680 10676 10674 10672 10668 10666 10663 10656 10649 10645 10643 10639 10634 10629 10623 10618 10615 10611 10604 10596 10592 10587 10580 10577 10576 10574 10569 10565 10566 10568 10565 10561 10553 10544 10529 10516 10510 10501 10495 10493 10484 10475 10472 10468 10465 10462 10456 10448
10736 10736 10736 10736 10736 10736 10736 10735 10735 10735 10734 10733 10733 10731 10731 10729 10728 10727 10726 10724 10723 10721 10720 10718 10716 10715 10713 10711 10709 10707 10704 10702 10699 10696 10693 10691 10688 10684 10681 10677 10675 10671 10668 10666 10662 10660 10659 10653 10644 10639 10637 10632 10628 10622 10615 10609 10605 10600 10595 10588 10583 10579 10572 10567 10566 10564 10557 10550 10550 10550 10549 10549 10542 10534 10523 10508 10499 10493 10486 10481 10474 10469 10464 10457 10453 10449 10444 10437
10735 10736 10736 10735 10736 10735 10735 10735 10734 10734 10733 10732 10731 10730 10729 10728 10727 10725 10724 10723 10721 10719 10718 10716 10714 10712 10709 10708 10705 10703 10700 10697 10694 10692 10688 10685 10682 10679 10675 10672 10669 10666 10662 10660 10656 10653 10652 10649 10641 10633 10629 10625 10620 10615 10608 10601 10594 10589 10584 10576 10573 10571 10565 10558 10553 10552 10544 10536 10536 10533 10530 10533 10526 10518 10514 10504 10492 10487 10478 10468 10464 10461 10454 10446 10439 10434 10429 10424
10735 10735 10735 10735 10735 10735 10734 10734 10733 10733 10732 10731 10730 10729 10728 10726 10725 10724 10722 10720 10719 10717 10715 10713 10710 10708 10706 10703 10701 10698 10696 10692 10689 10686 10683 10679 10676 10673 10670 10666 10663 10660 10656 10653 10650 10646 10643 10643 10637 10629 10624 10619 10613 10607 10601 10595 10587 10580 10573 10564 10560 10557 10554 10548 10541 10536 10528 10521 10522 10518 10514 10519 10512 10500 10498 10492 10483 10477 10468 10459 10454 10450 10444 10435 10428 10422 10417 10412
10735 10735 10735 10735 10735 10734 10734 10733 10732 10732 10731 10730 10728 10727 10726 10725 10723 10722 10720 10718 10716 10714 10712 10709 10707 10704 10701 10699 10696 10693 10690 10687 10684 10680 10677 10673 10670 10667 10663 10660 10657 10653 10650 10646 10643 10639 10635 10633 10628 10622 10616 10612 10606 10599 10592 10587 10579 10572 10564 10556 10551 10546 10541 10536 10528 10521 10511 10503 10501 10496 10496 10504 10498 10486 10482 10476 10469 10463 10455 10449 10445 10439 10433 10424 10415 10410 10404 10399
10735 10735 10735 10734 10734 10733 10733 10732 10731 10730 10729 10728 10726 10725 10724 10722 10721 10719 10717 10715 10713 10711 10708 10705 10702 10700 10697 10694 10691 10688 10685 10681 10678 10675 10671 10667 10664 10661 10657 10654 10650 10647 10643 10638 10635 10631 10626 10622 10618 10612 10607 10601 10595 10589 10582 10576 10568 10561 10554 10545 10540 10536 10529 10524 10520 10513 10504 10496 10488 10478 10481 10488 10479 10470 10468 10460 10454 10448 10438 10433 10431 10427 10422 10412 10402 10395 10388 10384
10735 10734 10734 10734 10733 10732 10731 10730 10729 10728 10726 10725 10724 10723 10721 10719 10718 10716 10714 10711 10709 10707 10704 10701 10698 10695 10692 10688 10685 10683 10679 10676 10672 10669 10666 10662 10658 10655 10651 10647 10644 10640 10635 10630 10626 10622 10618 10613 10608 10603 10598 10591 10584 10577 10571 10564 10555 10547 10540 10532 10526 10521 10513 10505 10503 10502 10497 10492 10484 10472 10471 10474 10463 10455 10454 10445 10437 10432 10422 10415 10416 10415 10409 10399 10390 10384 10376 10370
10734 10733 10733 10732 10731 10730 10729 10727 10726 10725 10724 10722 10721 10720 10718 10716 10714 10712 10710 10707 10704 10702 10699 10697 10693 10690 10687 10683 10679 10677 10673 10670 10667 10663 10660 10656 10652 10648 10644 10640 10636 10632 10627 10622 10617 10612 10608 10604 10598 10593 10586 10579 10573 10567 10560 10554 10545 10536 10528 10520 10515 10508 10499 10491 10486 10484 10482 10479 10475 10467 10464 10464 10455 10443 10440 10434 10423 10415 10406 10400 10402 10402 10394 10385 10379 10373 10366 10359
10733 10732 10731 10730 10728 10728 10726 10725 10724 10723 10721 10720 10718 10716 10714 10712 10710 10708 10706 10703 10700 10697 10694 10691 10689 10685 10682 10678 10674 10672 10668 10664 10661 10657 10653 10649 10644 10640 10636 10631 10627 10623 10618 10614 10608 10602 10597 10593 10588 10583 10577 10569 10562 10557 10552 10545 10536 10526 10518 10512 10507 10498 10489 10482 10475 10468 10465 10462 10458 10453 10451 10454 10448 10435 10431 10428 10417 10405 10394 10388 10390 10388 10380 10373 10368 10362 10354 10348
10731 10729 10728 10727 10726 10725 10724 10723 10721 10720 10718 10716 10714 10713 10711 10709 10707 10704 10702 10699 10696 10693 10690 10687 10684 10680 10677 10673 10670 10666 10662 10659 10654 10650 10646 10641 10636 10631 10627 10623 10618 10614 10609 10605 10599 10592 10586 10579 10574 10570 10565 10558 10552 10548 10544 10538 10528 10516 10506 10501 10498 10490 10479 10471 10463 10455 10452 10451 10446 10438 10435 10438 10432 10423 10421 10419 10410 10400 10388 10380 10380 10375 10367 10363 10359 10352 10344 10337
10728 10727 10726 10725 10724 10723 10721 10720 10719 10717 10715 10713 10711 10709 10707 10705 10703 10700 10697 10694 10691 10688 10685 10682 10678 10675 10671 10667 10664 10660 10656 10652 10647 10643 10638 10633 10628 10623 10618 10614 10609 10604 10600 10594 10589 10582 10574 10566 10559 10553 10546 10538 10532 10530 10526 10522 10514 10502 10491 10486 10484 10479 10467 10457 10448 10439 10433 10434 10433 10424 10419 10421 10417 10408 10406 10402 10395 10389 10380 10372 10370 10363 10354 10350 10346 10339 10333 10325
10726 10725 10724 10723 10722 10720 10719 10717 10715 10714 10712 10710 10708 10705 10703 10701 10698 10696 10693 10690 10686 10683 10680 10676 10673 10669 10665 10661 10657 10653 10648 10644 10639 10635 10630 10625 10620 10615 10610 10606 10601 10595 10590 10584 10578 10572 10565 10557 10550 10543 10534 10523 10516 10514 10508 10501 10494 10484 10474 10471 10471 10465 10454 10443 10433 10422 10415 10415 10416 10409 10401 10400 10398 10393 10390 10385 10378 10374 10368 10363 10359 10352 10345 10340 10333 10326 10320 10312
10724 10723 10722 10721 10719 10717 10716 10714 10712 10710 10708 10706 10703 10701 10699 10696 10693 10691 10688 10685 10682 10678 10674 10671 10667 10663 10659 10655 10651 10646 10640 10635 10630 10626 10621 10616 10611 10606 10601 10596 10591 10584 10579 10573 10567 10562 10556 10549 10543 10537 10528 10515 10507 10505 10499 10489 10480 10468 10458 10456 10459 10452 10440 10431 10421 10410 10402 10398 10399 10397 10388 10380 10376 10374 10371 10367 10361 10357 10352 10349 10347 10342 10336 10332 10325 10318 10311 10304
10722 10721 10719 10718 10716 10714 10712 10710 10708 10706 10704 10702 10699 10696 10694 10691 10688 10685 10682 10679 10676 10673 10669 10665 10661 10657 10653 10649 10644 10640 10634 10629 10623 10617 10612 10607 10602 10597 10591 10585 10579 10573 10566 10560 10554 10550 10545 10539 10534 10531 10523 10510 10501 10496 10489 10478 10468 10455 10444 10443 10446 10441 10430 10423 10414 10403 10396 10388 10384 10384 10380 10370 10361 10358 10357 10351 10345 10340 10335 10332 10331 10328 10325 10321 10315 10310 10304 10296
10720 10718 10716 10714 10712 10710 10708 10707 10704 10702 10700 10697 10695 10692 10689 10686 10683 10680 10677 10673 10670 10667 10663 10659 10655 10650 10646 10641 10637 10633 10628 10624 10619 10613 10607 10601 10595 10589 10582 10575 10569 10563 10556 10550 10543 10538 10534 10528 10524 10523 10518 10507 10497 10490 10480 10469 10459 10448 10437 10434 10436 10432 10425 10417 10406 10396 10388 10381 10375 10373 10371 10365 10355 10347 10343 10338 10331 10326 10321 10317 10316 10312 10309 10306 10301 10296 10292 10286
10717 10715 10713 10711 10709 10706 10704 10703 10700 10698 10695 10693 10690 10687 10684 10681 10678 10675 10672 10668 10664 10660 10656 10652 10648 10643 10639 10634 10629 10625 10620 10616 10612 10607 10601 10594 10588 10581 10574 10567 10561 10554 10547 10540 10533 10526 10523 10519 10513 10512 10511 10503 10494 10487 10475 10461 10449 10438 10428 10426 10427 10425 10421 10415 10402 10391 10384 10376 10370 10367 10362 10356 10348 10338 10332 10327 10318 10312 10306 10302 10299 10295 10292 10289 10285 10280 10277 10273
10714 10711 10709 10707 10705 10703 10700 10698 10695 10693 10690 10688 10685 10682 10680 10677 10674 10670 10666 10662 10658 10654 10650 10645 10641 10635 10631 10626 10621 10617 10612 10606 10601 10596 10590 10584 10578 10572 10565 10558 10552 10545 10537 10530 10523 10515 10511 10509 10503 10501 10502 10497 10488 10481 10471 10457 10443 10428 10415 10416 10421 10418 10416 10412 10397 10384 10377 10367 10360 10358 10352 10344 10336 10329 10322 10317 10309 10299 10292 10286 10282 10280 10278 10274 10270 10265 10262 10258
10710 10708 10705 10703 10701 10698 10696 10693 10690 10688 10685 10683 10681 10678 10675 10673 10669 10665 10661 10656 10652 10648 10643 10639 10634 10629 10624 10619 10614 10609 10604 10598 10592 10586 10579 10573 10568 10561 10554 10547 10540 10534 10528 10520 10513 10506 10499 10496 10493 10489 10490 10489 10480 10470 10462 10450 10438 10421 10404 10403 10413 10411 10407 10406 10394 10376 10366 10358 10350 10348 10344 10333 10324 10317 10310 10306 10302 10293 10284 10276 10269 10264 10265 10263 10257 10251 10247 10244